Weather in Bourges

France     47°05′04″N   2°23′22″E
В апреле 2022 года жителям России запретили посещать сайт meteo.paraplan.net по решению Генеральной прокуратуры. Аудитория сайта уменьшилась в 10 раз. Владельцы сайта не видят смысла в поддержке погодного сервера в таких условиях. Сайт будет закрыт в октябре.
temp.,
°C
wind,
m/s
gust,
m/s
humid.,
%
clouds,
%
prec.,
mm/h
press.,
hPa
HPBL,
m
30 september, fri
fri3023:00+11n2376100 0.0 100753
02:00+10ene238295 0.0 100961
05:00+8ne22915 0.0 100926
08:00+7ne11905 0.0 101210
11:00+12wnw11690 0.0 1014422
14:00+16wnw11465 0.0 10141304
17:00+17wsw23435 0.0 10131427
20:00+12wsw33605 0.0 101427
1 october, sat
sat123:00+11sw41063100 0.0 1015213
02:00+12sw61370100 0.0 1015497
05:00+11ssw61591100 2.0 1015674
08:00+12sw81688100 3.8 1014690
11:00+14sw81691100 1.1 1015768
14:00+16wsw7129290 1.9 1016833
17:00+18wsw61278100 1.1 1017447
20:00+15wsw2596100 3.0 1020158
2 october, sun
sun223:00+17w61294100 1.1 1021928
02:00+16w5109493 2.4 1023610
05:00+16wsw499598 0.4 1023444
08:00+15sw499498 0.4 1024280
11:00+17wsw4891100 0.1 1025538
14:00+17wsw488842 0.6 1025608
17:00+19wsw58745 0.5 1024906
20:00+16ssw3476100 0.5 102440
3 october, mon
mon323:00+16sw498197 0.0 1024249
02:00+13wsw369131 0.0 1024126
05:00+12wsw359662 0.0 102494
08:00+12wsw239767 0.0 102459
11:00+17sw128132 0.0 1024389
14:00+21wsw11605 0.0 10231025
17:00+21n11556 0.0 10211150
20:00+17e117097 0.0 102211
4 october, tue
tue423:00+16ese227584 0.0 102116
02:00+14ese3383100 0.0 102046
05:00+13se339093 0.0 101944
08:00+12ese339251 0.0 101943
11:00+18se236645 0.0 1019361
14:00+23ssw12488 0.0 1018844
17:00+24w23435 0.0 10171066
20:00+18w115918 0.0 101811